Regional Weather Roundup
Issued by NWS

Home | Current Version | Previous Version | Graphics & Text | Print | Product List | Glossary On
Versions: 1 2 3 4 5 6 7 8 9 10 11 12 13 14 15 16 17 18 19 20 21 22 23 24 25 26 27 28 29 30 31 32 33 34 35 36 37 38 39 40 41 42 43 44 45 46 47 48 49 50
000
ASUS43 KBIS 281820
RWRND

NORTH DAKOTA REGIONAL WEATHER ROUNDUP
NATIONAL WEATHER SERVICE BISMARCK ND
1200 PM CST FRI NOV 28 2014

NOTE: "FAIR" INDICATES FEW OR NO CLOUDS BELOW 12,000 FEET WITH NO
SIGNIFICANT WEATHER AND/OR OBSTRUCTIONS TO VISIBILITY.


NDZ001>003-009>011-017-281900-
NORTHWEST NORTH DAKOTA

CITY           SKY/WX    TMP DP  RH WIND       PRES   REMARKS
WILLISTON      CLOUDY    19  15  84 E9        29.59F WCI   8
6HR MIN TEMP:  15; 6HR MAX TEMP:  19;

MINOT          LGT SNOW  11   5  77 E13       29.73F WCI  -4
MINOT AFB      FLURRIES  10   7  85 SE15      29.72F WCI  -6
$$

NDZ018>021-031>035-040>046-281900-
SOUTHWEST NORTH DAKOTA

CITY           SKY/WX    TMP DP  RH WIND       PRES   REMARKS
BISMARCK       PTSUNNY   17  11  77 E10       29.74F WCI   5
6HR MIN TEMP:  10; 6HR MAX TEMP:  17;

DICKINSON      PTSUNNY   32  24  72 SE6       29.57F
GARRISON         N/A     13   9  84 E14       29.69F WCI  -2
6HR MIN TEMP:  11; 6HR MAX TEMP:  13;

HETTINGER ARPT PTSUNNY   36  27  69 S5        29.61F
$$

NDZ004>008-012>016-024-026-027-054-281900-
NORTHEAST NORTH DAKOTA

CITY           SKY/WX    TMP DP  RH WIND       PRES   REMARKS
GRAND FORKS    CLOUDY    14   8  77 E10       29.88F WCI   1
GRND FRKS AFB  CLOUDY    14   9  79 E6        29.89R WCI   5
DEVILS LAKE    CLOUDY    12   1  62 SE18      29.76F WCI  -5
$$

NDZ022-023-025-028>030-036>039-047>053-281900-
SOUTHEAST NORTH DAKOTA

CITY           SKY/WX    TMP DP  RH WIND       PRES   REMARKS
FARGO          CLOUDY    16   8  71 E9        29.87F WCI   4
6HR MIN TEMP:  13; 6HR MAX TEMP:  16;

JAMESTOWN      PTSUNNY   12   6  77 E12       29.77F WCI  -2
$$



USA.gov is the U.S. government's official web portal to all federal, state and local government web resources and services.